World > North America > United States > North Carolina

Hourly Trenton, NC Regional Weather

Feedback E-mail the Weather

Latest News

Trenton, NC Weather Maps

°F °C°F °C
Trenton Weather Map
UTC Time: 5/24/2022, 21:13
Your Time:

Trenton, NC Regional Weather

Expires:202205242100;;519914
ASUS42 KMHX 242026
RWRMHX
WEATHER ROUNDUP FOR EASTERN NORTH CAROLINA
NATIONAL WEATHER SERVICE NEWPORT/MOREHEAD CITY NC
400 PM EDT TUE MAY 24 2022

NOTE: "FAIR" INDICATES FEW OR NO CLOUDS BELOW 12,000 FEET
WITH NO SIGNIFICANT WEATHER AND/OR OBSTRUCTIONS TO VISIBILITY


NCZ011>013-027>030-043-044-078>080-089-090>093-098-242100-
COASTAL PLAIN
  
CITY           SKY/WX    TMP DP  RH WIND       PRES   REMARKS
AHOSKIE        CLOUDY    69  69 100 NE8       30.08S                  
ROCKY MOUNT    CLOUDY    73  66  78 NW15      30.07R                  
GREENVILLE     PTSUNNY   81  73  78 CALM      30.03S HAZE             
WASHINGTON     NOT AVBL                                               
GOLDSBORO      PTSUNNY   84  64  50 SW14      30.01F                  
KINSTON        MOSUNNY   84  72  65 W6        30.04F                  
NEW BERN       CLOUDY    74  71  91 N5        30.03F                  
HAVELOCK       NOT AVBL                                               
KENANSVILLE    PTSUNNY   84  70  61 MISG      30.03F                  
RICHLANDS      PTSUNNY   84  69  60 SW15G23   30.03F                  
CLINTON        PTSUNNY   85  68  56 SW12      30.04F                  
ELIZABETHTOWN  PTSUNNY   87  65  47 W13       30.04F                  
WHITEVILLE     PTSUNNY   83  70  64 SE9       30.06S                  

$$


SKY/WX - Weather  TMP - Temperature  DP - Dew Point  RH - Humidity
WIND - Wind Direction/Speed PRES - Barometric Pressure VSB - Visibility
WCI - Wind Chill Index E13G22 Wind - East Wind 13 mph/Gusts of 22 mph

Trending Headlines

Trenton Radar Loop



Trenton Quick Facts


National Two Day Weather Forecast


E-mail the Trenton Weather Forecast

Voice your opinion or tell us about page issues...